User: anonymous   Login
Location: Caltech
(34.1382°N, 118.1253°W)
Time: 07:08:26
(UTC-07:00)
Language:

RS-15 - Orbit

View from above orbital plane
View from above orbital plane
View from above satellite
View from above satellite

Ground track
Ground track

The orbit data is extracted from the following two-line orbital elements,

1 23439U 94085A   15215.54633481 -.00000033  00000-0  28060-3 0  9991
2 23439 064.8158 244.8775 0155489 003.9997 356.2132 11.27562751848493
Epoch (UTC): 03 August 2015 13:06:43
Eccentricity: 0.0155489
inclination: 64.8158°
perigee height: 1892 km
apogee height: 2153 km
right ascension of ascending node: 244.8775°
argument of perigee: 3.9997°
revolutions per day: 11.27562751
mean anomaly at epoch: 356.2132°
orbit number at epoch: 84849

The dashed part of the orbit path shows where the satellite is in the earth's shadow,  

DLR